EHI
0 0 0 0 0 0 0 0 0 0 0 0 0 0 0 0 0 0 0 0 0 1 5 8 9 6 2 0 0 0 0 0 0 0 0 0 0 0 0 0 0 0 0 0
0 0 0 0 0 0 0 0 0 0 0 0 0 0 0 0 0 0 0 0 0 1 4 8 10 8 3 0 0 0 0 0 0 0 0 0 0 0 0 0 0 0 0 0
0 0 0 0 0 0 0 0 0 0 0 0 0 0 0 0 0 0 0 0 0 1 4 9 11 9 5 1 0 0 0 0 0 0 0 0 0 0 0 0 0 0 0 0
0 0 0 0 0 0 0 0 0 0 0 0 0 0 0 0 0 0 0 0 0 1 3 8 11 9 5 2 1 0 0 0 0 0 0 0 0 0 0 0 0 0 0 0
0 0 0 0 0 0 0 0 0 0 0 0 0 0 0 0 0 0 0 1 1 1 3 6 9 8 5 3 2 1 0 0 0 0 0 0 0 0 0 0 0 0 0 0
0 0 0 0 0 0 0 0 0 0 0 0 0 0 0 0 0 0 0 0 1 1 2 5 6 6 4 3 2 1 0 0 0 0 0 0 0 0 0 0 0 0 0 0
0 0 0 0 0 0 0 0 0 0 0 0 0 0 0 0 0 0 0 0 1 3 4 4 5 5 4 3 3 1 0 0 0 0 0 0 0 0 0 0 0 0 0 0
0 0 0 0 0 0 0 0 0 0 0 0 0 0 0 0 0 0 0 0 1 4 5 5 5 4 3 3 3 2 1 0 0 0 0 0 0 0 0 0 0 0 0 0
0 0 0 0 0 0 0 0 0 0 0 0 0 0 0 0 0 0 0 0 1 3 4 4 4 3 3 3 3 3 2 1 1 0 0 0 0 0 0 0 0 0 0 0
0 0 0 0 0 0 0 0 0 0 0 0 0 0 0 0 0 0 0 0 1 3 4 4 2 1 1 3 3 3 3 3 2 1 0 0 0 0 0 0 0 0 0 0
0 0 0 0 0 0 0 0 0 0 0 0 0 0 0 0 0 0 0 0 1 3 5 4 1 0 1 2 3 3 3 3 2 1 0 0 0 0 0 0 0 0 0 0
0 0 0 0 0 0 0 0 0 0 0 0 0 0 0 0 0 0 1 1 3 5 5 4 2 1 1 3 3 3 3 3 2 1 0 0 0 0 0 0 0 0 0 0
0 0 0 0 0 0 0 0 0 0 0 0 0 0 0 0 0 1 2 3 4 5 5 3 1 1 2 3 3 3 3 3 2 1 0 0 0 0 0 0 0 0 0 0
0 0 0 0 0 0 0 0 0 0 0 0 0 0 0 0 0 2 3 3 4 5 4 1 0 1 2 3 3 3 3 3 2 1 0 0 0 0 0 0 0 0 0 0
0 0 0 0 0 0 0 0 0 0 0 0 0 0 0 0 0 1 2 2 3 4 3 1 0 1 3 3 3 3 3 3 1 0 0 0 0 0 0 0 0 0 0 0
0 0 0 0 0 0 0 0 0 0 0 0 0 0 0 0 0 1 1 1 1 2 1 0 1 2 3 3 3 3 3 2 1 0 0 0 0 0 0 0 0 0 0 0
0 0 0 0 0 0 0 0 0 0 0 0 0 0 0 0 0 1 1 0 0 0 0 0 1 2 3 3 3 3 3 2 1 0 0 0 0 0 0 0 0 0 0 0
0 0 0 0 0 0 0 0 0 0 0 0 0 0 0 0 0 1 1 0 0 0 0 0 1 2 3 3 3 3 3 1 0 0 0 0 0 0 0 0 0 0 0 0
0 0 0 0 0 0 0 0 0 0 0 0 0 0 0 0 0 0 0 0 0 0 0 0 0 1 3 3 3 3 2 1 0 0 0 0 0 0 0 1 1 0 0 0
0 0 0 0 0 0 0 0 0 0 0 0 0 0 0 0 0 0 0 0 0 0 0 0 0 1 2 3 3 3 2 1 0 0 0 0 0 0 0 1 2 1 1 1
0 0 0 0 0 0 0 0 0 0 0 0 0 0 0 0 0 1 1 1 1 0 0 0 0 1 2 3 3 3 2 1 0 0 0 0 0 0 0 1 2 3 2 2
0 0 0 0 0 0 0 0 0 0 0 0 0 0 0 1 1 2 2 2 1 0 0 0 0 0 2 3 3 2 1 0 0 0 0 0 0 0 0 1 2 3 3 3
0 0 0 0 0 0 0 0 0 0 0 0 0 0 0 1 2 2 2 1 1 0 0 0 0 1 2 3 3 1 0 0 0 0 0 0 0 0 0 0 1 1 2 2
0 0 0 0 0 0 0 0 0 0 0 0 0 0 0 1 1 1 1 0 0 0 0 0 0 1 2 3 2 1 0 0 0 0 0 0 0 0 0 0 0 0 1 1
0 0 0 0 0 0 0 0 0 0 0 0 0 0 0 0 0 0 0 0 0 0 0 0 0 1 2 2 1 0 0 0 0 0 0 0 0 0 0 0 0 0 0 0
0 0 0 0 0 0 0 0 0 0 0 0 0 0 0 0 0 0 0 0 0 0 0 0 0 0 1 1 0 0 0 0 0 0 0 0 0 0 0 0 0 0 0 0
Wind_Speed
1 3 2 5 6 4 3 3 2 4 3 3 4 5 6 6 5 6 5 6 6 7 6 6 7 7 6 6 5 5 5 4 4 3 2 2 1 1 1 1 2 3 3 3
3 3 6 4 3 3 2 2 3 2 2 2 2 4 5 6 8 8 8 7 7 6 4 5 6 7 7 7 6 5 6 5 5 3 2 2 2 1 1 1 2 2 3 3
5 5 3 2 2 2 3 4 5 3 1 1 1 3 3 4 4 6 7 7 6 9 9 8 7 7 7 7 8 7 6 6 5 4 3 3 3 2 2 2 1 1 3 3
3 5 2 2 3 3 3 4 4 4 2 3 2 2 5 4 4 7 7 7 7 7 8 8 8 8 8 8 6 6 6 6 5 5 5 5 3 2 2 1 1 1 2 3
3 3 3 3 4 3 4 3 1 2 2 1 2 3 6 2 5 8 9 9 9 9 9 10 10 9 8 7 6 6 6 6 5 6 6 5 4 2 2 1 2 1 1 2
4 3 4 4 3 2 1 4 5 4 3 3 5 4 6 5 8 7 9 9 9 9 9 9 9 8 7 7 6 6 6 5 5 6 6 6 6 4 4 2 2 1 1 1
3 3 2 2 1 2 4 5 3 3 2 5 3 3 7 6 6 8 10 10 10 9 9 9 9 8 8 8 8 7 7 6 5 6 6 6 7 6 6 4 4 3 1 1
1 4 3 2 4 4 3 7 5 4 4 4 2 4 6 5 5 5 6 8 9 8 9 9 10 10 9 9 8 8 7 6 6 6 6 6 6 5 4 4 4 4 3 2
3 4 4 3 3 5 3 3 6 5 1 1 3 4 4 2 1 2 3 5 8 9 9 9 9 10 10 9 9 9 8 6 6 7 6 5 6 5 5 4 4 3 3 3
5 3 4 3 1 1 5 5 4 3 2 2 4 4 4 4 5 4 4 6 7 7 8 8 9 10 9 9 8 8 8 7 6 6 6 6 6 6 6 5 4 4 3 3
4 3 3 1 2 3 1 1 3 3 4 4 3 6 6 7 7 6 6 6 7 8 9 9 9 9 8 8 7 7 7 6 6 6 6 6 5 5 5 5 5 4 3 4
3 4 2 4 5 3 3 3 4 3 3 3 3 7 5 5 5 5 6 6 7 8 7 8 8 8 8 8 8 7 7 7 6 6 6 6 5 5 5 5 4 4 4 4
3 5 1 5 5 3 1 1 3 4 3 3 3 7 4 1 2 3 4 4 5 6 6 6 6 7 8 9 8 8 7 7 6 6 6 6 6 6 5 5 4 4 4 4
4 4 5 7 6 3 4 4 2 3 3 4 6 7 5 3 2 2 2 3 4 5 6 6 6 7 7 8 8 8 7 6 6 6 7 7 6 6 6 5 4 4 5 5
4 3 4 5 5 4 5 7 5 5 6 7 8 8 8 7 5 5 4 4 4 4 6 7 7 7 6 7 7 7 6 6 7 7 7 6 6 5 5 4 4 4 4 5
2 2 2 4 5 4 6 8 7 8 7 7 6 8 6 4 3 2 4 5 6 6 6 7 7 7 7 7 7 6 6 6 7 7 6 6 6 6 5 5 4 4 4 4
1 2 1 4 5 3 7 7 8 6 6 7 8 9 3 3 5 6 6 6 7 7 6 7 8 8 8 7 7 8 7 6 7 7 6 6 7 6 5 5 5 5 4 4
5 3 2 2 1 6 8 5 5 5 5 6 5 4 6 6 5 5 6 7 7 7 7 7 7 7 6 6 6 6 6 6 6 6 6 6 7 6 5 5 5 5 4 4
7 6 3 2 3 6 6 3 2 3 5 3 4 4 4 2 0 2 4 6 8 8 7 7 7 6 6 6 6 6 6 6 6 6 6 6 7 7 6 6 5 4 5 4
4 5 4 3 3 6 6 5 2 1 4 4 2 4 4 3 2 4 4 4 4 5 5 6 6 5 6 6 6 7 6 6 7 7 7 6 6 7 7 7 5 4 5 4
2 2 4 4 4 7 6 4 2 2 6 4 2 2 3 4 5 5 3 3 3 3 4 5 6 6 6 6 7 7 7 7 6 6 6 6 6 6 6 5 4 5 5 5
5 4 4 4 4 8 3 1 2 6 3 2 1 1 1 1 1 2 3 3 2 3 4 5 6 6 5 7 8 7 7 6 5 6 6 6 5 5 5 5 4 5 6 5
4 6 5 7 7 5 3 3 3 2 2 2 1 1 2 1 1 1 2 3 3 4 4 4 5 6 5 6 8 9 7 6 6 6 6 6 5 4 5 6 6 5 5 4
3 1 2 2 5 4 3 2 2 2 3 3 2 2 2 2 2 2 2 3 3 4 4 4 5 5 5 6 6 7 7 7 8 7 6 5 5 4 4 4 5 5 5 5
4 1 1 4 5 4 4 3 3 3 2 1 2 2 3 3 3 4 3 4 4 4 4 4 5 5 6 6 6 6 7 8 8 7 6 5 5 5 4 3 3 4 4 6
4 4 4 6 6 4 7 6 4 3 2 3 2 2 2 3 4 3 3 3 4 4 4 4 4 4 4 5 5 5 6 8 8 6 6 5 4 4 4 4 2 1 2 4
Wind_Direction
139 93 211 220 203 198 182 185 222 237 217 166 194 211 217 207 201 197 194 194 196 200 200 181 173 169 164 163 159 158 151 147 132 117 112 107 100 72 65 86 93 91 96 103
49 253 236 222 216 200 207 205 245 268 231 160 205 238 226 209 204 200 195 198 198 196 189 181 171 166 168 170 169 164 161 158 151 145 141 139 131 116 105 71 75 83 97 107
190 240 231 192 213 215 242 208 216 212 302 328 115 302 255 235 212 203 200 197 192 187 186 183 175 173 170 173 176 175 174 163 156 143 119 99 72 55 44 43 45 53 93 99
228 240 231 219 240 202 244 233 204 189 167 258 181 257 266 234 223 210 209 204 199 192 184 182 179 176 178 182 176 171 172 166 162 149 143 143 139 143 179 171 126 66 88 101
246 218 193 216 235 209 230 246 215 199 171 268 248 202 273 226 230 225 214 208 202 195 186 185 184 178 175 173 170 171 167 168 168 159 156 151 145 154 155 133 109 80 67 89
249 238 196 204 232 210 176 40 24 39 71 265 237 196 258 223 217 218 216 211 203 195 188 185 184 169 166 165 162 168 166 173 171 163 162 160 158 157 149 151 145 132 67 56
311 291 262 181 184 350 83 81 32 0 351 257 235 202 246 234 218 207 206 207 199 188 183 181 178 171 169 170 171 171 170 177 176 169 169 170 169 168 171 174 170 160 144 144
211 278 258 210 178 193 191 146 162 198 223 270 267 225 253 245 223 206 200 195 187 184 183 184 182 178 176 175 174 172 172 178 179 177 177 177 173 170 176 178 171 172 171 183
179 253 272 251 196 158 171 188 177 154 216 271 273 276 300 308 283 200 179 174 185 188 187 186 182 180 177 176 177 176 174 179 184 180 175 175 174 169 171 173 168 172 177 173
164 233 273 277 14 233 177 170 109 126 174 249 277 259 238 234 236 230 199 195 196 189 186 185 183 183 182 179 177 174 172 179 182 176 175 174 174 171 168 166 171 172 169 158
151 172 289 336 203 232 263 145 129 139 172 171 242 265 230 211 218 214 213 207 198 189 187 187 185 182 178 172 169 173 174 174 179 177 174 169 173 171 163 168 178 174 167 162
142 134 234 260 263 230 191 190 156 167 228 190 205 263 265 209 207 202 212 209 197 187 186 183 177 172 171 173 174 177 177 177 181 177 169 167 167 162 160 170 175 168 165 164
126 114 66 337 335 342 300 203 163 147 143 186 201 262 290 268 249 223 207 200 190 180 177 173 168 172 178 179 177 178 178 179 177 168 162 159 160 160 166 168 164 162 158 150
126 129 171 204 224 242 267 275 252 146 177 224 228 248 278 273 259 261 214 192 178 176 171 169 173 178 181 180 177 175 180 177 169 161 161 164 171 173 170 164 162 163 156 148
112 172 211 230 237 233 248 258 249 224 208 209 238 239 245 237 229 230 204 175 162 166 174 179 181 180 175 175 176 174 177 175 168 161 163 172 172 165 156 154 155 150 149 149
99 179 225 267 262 259 259 254 245 239 233 233 243 256 249 223 205 208 194 172 173 182 188 188 184 179 177 176 176 172 174 174 166 163 169 167 158 154 153 152 142 136 139 140
157 151 178 260 276 306 266 238 227 232 229 214 230 238 221 209 198 197 197 192 191 190 188 190 188 186 182 179 174 176 177 169 162 162 163 162 159 156 157 151 139 139 144 140
167 156 166 219 282 239 248 237 212 224 248 234 224 220 198 206 215 210 196 193 200 196 190 189 189 186 180 172 168 170 165 161 159 159 161 164 159 155 150 147 149 146 140 140
176 161 158 163 217 269 283 264 198 211 266 259 212 216 208 187 95 274 220 199 200 198 191 187 185 180 171 167 165 157 158 159 158 165 167 166 160 157 156 159 161 152 142 141
132 140 148 162 190 238 255 284 301 119 266 290 209 192 201 149 154 247 229 202 198 190 183 178 168 160 163 170 159 154 160 162 170 175 173 165 161 161 167 168 160 149 145 147
122 133 169 186 217 255 265 293 46 161 246 284 232 187 188 196 211 222 204 198 188 165 169 168 159 164 173 166 156 160 164 177 180 168 159 157 161 164 164 157 151 145 141 138
186 180 191 170 206 250 277 75 176 230 267 281 243 192 161 214 218 193 169 166 164 151 154 164 162 166 167 163 162 167 180 179 157 153 154 155 157 162 155 152 150 148 144 143
202 194 188 190 215 243 235 208 241 234 246 254 232 240 161 159 198 207 189 179 174 157 155 159 163 161 164 169 169 174 182 161 150 149 155 156 155 156 156 159 157 152 152 154
280 216 154 240 262 264 265 271 278 262 245 247 231 207 178 188 189 207 199 194 180 162 162 155 150 160 172 175 174 177 168 159 156 157 160 157 154 152 152 158 160 158 162 164
241 206 196 251 275 300 289 270 256 281 282 276 298 265 215 190 195 188 182 196 188 170 170 160 158 172 182 176 174 170 161 156 157 160 162 159 159 160 156 155 162 169 181 182
223 201 205 239 239 229 261 270 262 253 248 232 236 279 263 206 187 183 187 191 175 168 166 162 164 172 178 172 173 172 167 163 160 160 161 161 159 159 155 149 122 75 148 172